User: anonymous
Location: Plymouth
(43.7570°N, 71.6890°W)
Time: 00:13:28
(UTC-04:00)
Language:

COSMOS 2406 - Orbit

View from above orbital plane
View from above orbital plane
View from above satellite
View from above satellite

Ground track
Ground track

The orbit data is extracted from the following two-line orbital elements,

1 28352U 04021A   14208.16140699  .00000305  00000-0  19443-3 0  3501
2 28352 071.0041 169.1337 0017070 260.5860 182.8958 14.11350001521844
Epoch (UTC): 27 July 2014 03:52:25
Eccentricity: 0.0017070
inclination: 71.0041°
perigee height: 842 km
apogee height: 867 km
right ascension of ascending node: 169.1337°
argument of perigee: 260.5860°
revolutions per day: 14.11350001
mean anomaly at epoch: 182.8958°
orbit number at epoch: 52184

The dashed part of the orbit path shows where the satellite is in the earth's shadow,  

DLR